Location: Berlise
(49.6641°N, 4.1077°E)
Time: 02:44:43
(UTC+00:00)

Cosmos 1943 Rocket - Pass Details

Date: 27 January 2021
Orbit: 810 x 845 km, 71.0° (Epoch: 24 February)

Event Time Altitude Azimuth Distance (km) Brightness Sun altitude
Exits shadow 04:51:03 21° 342° (NNW) 1,832 3.8 -24.4°
Maximum altitude 04:54:52 59° 56° (ENE) 977 2.7 -23.8°
Drops below altitude 10° 05:00:28 10° 136° (SE) 2,464 5.2 -22.9°
Sets 05:02:56 0° 140° (SE) 3,395 6.0 -22.5°
